Regional Weather Roundup
Issued by NWS

Home | Current Version | Previous Version | Graphics & Text | Print | Product List | Glossary On
Versions: 1 2 3 4 5 6 7 8 9 10 11 12 13 14 15 16 17 18 19 20 21 22 23 24 25 26 27 28 29 30 31 32 33 34 35 36 37 38 39 40 41 42 43 44 45 46 47 48 49 50
000
ASUS43 KDTX 200401
RWRMI
MICHIGAN HOURLY REGIONAL WEATHER ROUNDUP
NATIONAL WEATHER SERVICE DETROIT/PONTIAC MI
1200 AM EDT FRI OCT 20 2017

NOTE: "FAIR" INDICATES FEW OR NO CLOUDS BELOW 12,000 FEET WITH NO
SIGNIFICANT WEATHER AND/OR OBSTRUCTION TO VISIBILITY.

MIZ047>049-052>055-059>063-066>070-074>076-081>083-200500-
SOUTHEAST LOWER MICHIGAN

CITY           SKY/WX    TMP DP  RH WIND       PRES   REMARKS
ADRIAN         FAIR      44  34  67 CALM      30.21R
ALMA           FAIR      47  34  60 SW5       30.18S
ANN ARBOR      FAIR      37  35  92 CALM      30.19R
BAD AXE        FAIR      41  34  75 CALM      30.16R
CARO           FAIR      40  35  83 CALM      30.17R
DETROIT CITY   FAIR      54  33  45 W3        30.18R
DETROIT        FAIR      53  33  46 W5        30.19R
FLINT          FAIR      48  34  58 W5        30.19R
GROSSE ILE     FAIR      50  37  60 W5        30.18R
HILLSDALE      FAIR      46  30  53 CALM      30.20S
HOWELL         FAIR      48  34  58 W5        30.19R

CITY           SKY/WX    TMP DP  RH WIND       PRES   REMARKS
JACKSON        FAIR      44  37  76 SW5       30.20R
LAMBERTVILLE   FAIR      47  38  71 CALM      30.20R
LANSING        FAIR      48  33  56 CALM      30.20R
LAPEER         FAIR      42  36  79 CALM      30.19R
MASON          FAIR      50  33  51 CALM      30.19S
MONROE         FAIR      45  37  72 W5        30.18S
MT. CLEMENS    FAIR      52  34  49 W6        30.16R
PONTIAC        FAIR      49  38  65 CALM      30.18R
PORT HOPE        N/A     53  36  52 W5        30.13R
PORT HURON     FAIR      41  36  81 CALM      30.17R
TRI CITIES     FAIR      49  35  58 W8        30.18R
MIDLAND        FAIR      41  34  77 CALM      30.17R
TROY           FAIR      54  32  43 W6        30.19S
SAGINAW HB     FAIR      50  32  50 W5        30.17R
$$
MIZ043>046-050>051-056>058-064>065-071>073-077>080-200500-
SOUTHWEST LOWER MICHIGAN

CITY           SKY/WX    TMP DP  RH WIND       PRES   REMARKS
BATTLE CREEK   FAIR      48  34  58 CALM      30.20S
BENTON HARBOR  FAIR      43  39  86 E3        30.18F
BIG RAPIDS     FAIR      42  34  72 CALM      30.17S
COLDWATER      FAIR      42  38  87 CALM      30.21R FOG
FREMONT        FAIR      44  41  89 CALM      30.17S
HOLLAND        FAIR      48  43  82 SE3       30.18S
GRAND RAPIDS   FAIR      46  39  76 S6        30.19R
IONIA          FAIR      48  36  63 W6        30.19R
KALAMAZOO      FAIR      44  37  76 E3        30.20S
LUDINGTON      FAIR      55  46  71 S3        30.13S
MARSHALL       FAIR      42  35  75 CALM      30.20S
MOUNT PLEASANT FAIR      51  33  51 W3        30.17R
MUSKEGON         N/A     46  42  86 SE8       30.17S
SOUTH HAVEN    FAIR      43  39  86 CALM      30.18F
$$
MIZ016>042-200500-
NORTHERN LOWER MICHIGAN

CITY           SKY/WX    TMP DP  RH WIND       PRES   REMARKS
ALPENA         FAIR      52  35  52 W3        30.11R
BEAVER ISLAND  FAIR      57  48  72 SW8       30.08S
BELLAIRE       FAIR      48  36  62 SW3       30.13S
CADILLAC       FAIR      47  33  59 SW6       30.15S
CHARLEVOIX     FAIR      54  41  61 SW10      30.13S
FRANKFORT      FAIR      56  49  76 CALM      30.12S
GAYLORD        FAIR      48  30  49 SW8       30.12S
GRAYLING       FAIR      39  33  78 CALM      30.14S
HARBOR SPRINGS FAIR      53  37  54 SW6       30.11R
HOUGHTON LAKE  FAIR      47  34  60 SW6       30.16R
MANISTEE       FAIR      40  38  93 E3        30.14R
OSCODA         FAIR      46  31  56 SW8       30.13R
PELLSTON       FAIR      54  40  59 W5        30.10R
ROGERS CITY    FAIR      53  33  46 W10       30.10R
TRAVERSE CITY  FAIR      52  36  54 S5        30.11S
$$
MIZ007>008-015-200500-
EASTERN UPPER MICHIGAN

CITY           SKY/WX    TMP DP  RH WIND       PRES   REMARKS
KINROSS        FAIR      49  43  80 SW5       30.06S
MACKINAC ISLAN FAIR      58  46  66 SW15      30.08R
NEWBERRY       FAIR      48  46  94 S8        30.05R
S. S. MARIE    FAIR      46  32  58 CALM      30.06R
MUNISING         N/A     51  36  56 S8        30.02R
$$
MIZ004>006-011>014-085-200500-
CENTRAL UPPER MICHIGAN

CITY           SKY/WX    TMP DP  RH WIND       PRES   REMARKS
MANISTIQUE     FAIR      53  47  81 S6        30.05S
ESCANABA       FAIR      56  44  64 SW10      30.04S
MENOMINEE      FAIR      55  41  59 SW8       30.07S
SAWYER-GWINN   FAIR      49  32  51 S10       30.03S
$$
MIZ001>003-009>011-084-200500-
WESTERN UPPER MICHIGAN

CITY           SKY/WX    TMP DP  RH WIND       PRES   REMARKS
IRON MOUNTAIN  FAIR      52  30  43 SE3       30.02S
HOUGHTON       FAIR      53  31  42 SW3       29.96S
COPPER HARBOR    N/A     52  39  61 W8        29.95S
IRONWOOD       FAIR      58  34  40 SW6       29.96S
$$

ABBREVIATIONS USED IN REMARKS
   TC - TEMPERATURE IN CELSIUS
  WCI - WIND CHILL INDEX
   HX - HEAT INDEX
  VSB - VISIBILITY





USA.gov is the U.S. government's official web portal to all federal, state and local government web resources and services.